Theta_e
325 318 320 314 301 299 297 302 310 310 312 314 315 314 316 328 326 320 347 354 358 359 361 362 363 364 364 362 362 361 361 361 361 361 362 363 362 362 362 362 363 363 361 359 354 353 353 354 353
316 319 315 308 296 291 297 307 307 311 315 315 315 315 319 329 339 340 345 356 358 360 359 360 363 364 364 362 361 361 361 361 361 361 362 363 362 362 362 361 361 361 358 355 353 352 354 354 353
320 317 305 300 296 294 298 307 309 315 317 316 314 320 330 332 343 342 352 357 359 358 360 361 363 363 363 363 361 360 361 361 361 361 361 362 362 361 361 360 359 359 355 353 352 353 356 356 354
311 307 305 296 295 301 304 309 312 314 315 316 318 327 337 342 343 348 354 357 355 357 361 363 363 362 363 362 361 361 361 361 360 361 361 362 362 361 360 360 358 357 356 355 354 356 356 356 356
306 302 295 294 297 303 308 312 313 310 314 313 316 324 331 340 345 349 353 355 352 357 360 362 363 362 363 362 362 361 361 360 360 361 361 361 360 360 360 359 358 356 355 355 354 355 355 355 355
298 300 291 293 298 304 308 312 314 313 311 312 313 316 316 337 339 341 352 351 353 357 359 361 364 362 362 361 360 360 360 359 360 360 360 360 359 359 359 358 357 356 355 354 354 353 352 352 351
295 295 294 295 298 302 307 314 312 313 311 311 315 312 313 319 333 342 342 350 356 358 357 358 361 363 362 361 359 359 359 359 359 358 358 359 359 359 358 357 356 355 353 352 350 350 349 347 345
299 296 294 298 298 299 308 313 316 315 314 319 317 310 307 316 323 345 341 343 354 355 355 356 358 360 360 359 361 359 359 359 358 358 358 358 358 358 357 354 354 354 352 351 348 346 344 342 341
303 293 291 295 298 302 307 308 316 319 316 316 318 315 317 319 320 330 340 340 351 355 353 353 355 356 357 358 360 360 361 359 358 358 358 355 354 353 354 353 355 353 352 350 347 345 343 341 342
295 291 294 299 302 302 305 308 312 313 314 313 315 318 322 319 315 316 334 337 338 349 350 350 352 353 354 358 357 357 357 358 356 355 355 352 350 349 351 351 354 353 351 350 348 345 344 343 330
297 293 299 302 304 305 304 306 313 312 308 313 312 315 316 317 314 313 312 322 332 342 342 347 351 352 351 354 354 354 354 356 353 354 353 349 349 350 349 345 348 344 349 341 342 339 336 332 329
293 300 301 302 305 304 302 307 304 307 309 312 312 313 311 311 312 314 310 312 316 337 344 342 348 349 349 352 354 354 354 353 352 352 352 350 347 347 342 343 341 339 339 335 333 331 330 328 328
295 299 302 304 304 302 306 302 301 303 309 309 310 310 309 309 310 312 312 312 313 329 341 334 345 348 347 350 352 352 353 353 353 353 354 351 347 342 341 340 340 339 335 334 330 329 329 328 328
300 300 301 302 302 303 300 302 301 304 309 308 308 307 308 309 310 310 311 310 312 320 341 343 347 346 344 340 347 348 348 352 352 353 354 352 348 345 342 339 338 338 335 332 330 329 329 329 332
303 298 301 301 300 299 302 298 299 303 306 305 306 307 308 309 310 310 311 311 313 316 336 337 340 340 333 334 345 348 346 348 347 348 350 352 347 344 344 337 340 338 335 332 329 332 332 332 332
298 296 289 297 301 302 300 292 301 305 303 303 305 307 308 308 310 312 314 315 319 320 337 344 340 333 329 339 349 352 347 347 346 345 346 349 349 345 345 339 339 338 334 335 332 330 333 334 332
294 288 290 294 301 300 297 293 301 304 303 302 302 304 306 307 309 311 313 315 316 317 320 336 339 333 332 348 350 351 350 348 346 345 345 346 347 346 345 342 338 340 336 333 337 334 333 330 329
288 290 292 293 299 300 296 295 300 303 303 302 302 303 304 306 307 310 314 315 318 322 325 323 327 347 351 353 350 349 351 349 349 346 345 346 345 348 346 342 339 341 340 336 339 337 335 333 332
297 295 293 297 302 298 295 295 298 300 300 300 301 302 303 304 308 309 312 313 313 318 319 319 321 329 349 346 349 347 347 348 349 348 346 346 346 346 346 343 339 341 338 337 336 336 333 332 333
298 294 292 297 300 296 295 295 298 300 301 301 302 303 303 305 306 308 309 312 312 312 319 320 318 321 336 347 347 350 349 348 350 350 347 347 347 346 345 345 342 342 341 337 337 336 333 333 334
294 293 293 294 298 298 296 293 296 301 302 304 304 305 305 305 306 308 312 313 316 315 318 323 323 323 324 338 346 344 346 345 344 346 349 348 348 347 345 344 343 341 341 339 338 336 333 331 334
291 298 298 297 293 286 296 284 293 298 300 302 303 302 304 306 307 308 309 311 313 315 319 318 327 331 330 329 333 340 339 339 343 345 347 348 348 347 345 344 343 341 340 338 337 338 335 332 331
295 300 298 297 292 290 292 287 291 297 298 301 302 304 304 306 307 308 310 312 312 314 314 319 319 322 323 324 329 328 331 337 340 342 341 344 348 348 347 345 343 341 339 337 338 338 340 337 332
303 298 295 293 290 283 291 290 290 296 297 300 302 303 305 305 307 307 308 309 309 310 312 313 316 317 320 320 321 324 327 329 333 336 338 340 343 346 347 348 345 343 340 340 340 340 341 340 336
300 291 283 281 282 284 296 292 294 300 302 303 301 302 303 304 304 305 304 306 307 307 308 312 312 312 316 319 320 320 319 323 326 329 334 336 338 341 343 345 345 341 341 342 343 340 339 341 339
298 295 287 283 281 286 295 290 295 302 303 303 304 303 304 303 304 304 305 305 306 307 309 310 311 311 313 315 316 319 321 322 322 323 325 335 337 339 343 342 343 341 340 341 342 341 343 341 341
297 292 297 289 290 284 289 294 299 302 302 302 302 303 299 301 303 304 303 306 305 305 307 309 309 310 312 312 312 314 319 322 323 323 325 326 336 341 340 342 341 341 336 338 346 343 343 344 344
298 300 288 289 281 279 287 289 289 293 295 298 296 296 297 299 300 304 305 305 306 305 306 307 309 311 309 310 311 314 314 318 319 320 323 325 328 338 340 341 342 341 341 343 346 345 344 343 345
295 292 294 292 288 281 280 285 296 295 295 294 296 297 299 300 301 303 303 304 304 305 305 306 308 309 308 308 308 310 312 317 317 320 324 325 327 333 338 341 341 340 339 341 342 343 342 342 341
300 296 294 288 286 288 284 286 298 297 296 297 297 299 300 300 300 301 302 303 303 303 304 304 304 305 307 308 308 308 312 314 313 319 321 322 324 328 333 339 339 338 336 325 324 333 340 330 338
Wind_Speed
6 9 7 3 2 2 7 10 11 20 19 4 6 7 8 8 6 6 7 20 21 18 12 15 22 22 22 21 19 18 17 17 17 16 16 16 15 15 14 14 14 13 14 13 12 12 13 12 11
4 6 3 3 3 3 8 14 20 21 11 4 4 4 11 14 16 13 8 15 19 17 12 10 19 22 22 20 19 18 18 17 17 16 16 16 15 14 14 13 12 12 12 12 12 12 11 11 9
3 4 2 3 5 8 7 19 17 13 2 6 2 2 7 4 10 5 19 19 19 16 13 11 16 19 22 21 19 17 18 18 17 16 16 15 15 15 14 13 13 12 13 12 12 12 10 9 8
4 1 3 3 11 14 20 22 16 15 2 7 3 10 6 8 3 13 20 20 17 15 14 15 15 17 20 20 20 18 18 19 17 17 16 14 14 14 13 12 11 11 11 11 11 10 9 7 6
3 2 4 6 12 15 19 22 17 7 9 6 1 11 7 10 9 18 20 19 18 13 13 13 16 17 19 19 19 19 18 18 18 17 17 15 14 13 12 12 11 10 10 10 10 8 7 7 5
3 4 3 13 14 15 21 19 14 11 7 2 7 12 4 4 8 7 18 18 18 16 13 13 15 16 18 19 19 19 17 18 18 18 17 16 15 14 13 12 11 10 10 9 9 8 7 6 4
5 5 9 9 15 18 21 15 13 5 6 5 10 9 1 8 7 6 9 17 18 18 15 11 10 12 15 17 18 17 18 18 17 16 16 15 14 13 12 11 10 10 9 9 7 7 7 6 4
5 4 15 14 16 22 20 7 7 14 17 4 5 5 3 2 6 4 2 12 18 17 16 14 12 10 8 9 16 16 17 18 17 17 17 15 13 12 11 11 10 10 8 8 8 7 7 6 6
8 8 12 17 15 19 15 5 6 10 12 3 0 7 5 7 6 3 1 4 13 14 16 16 13 11 9 7 10 13 15 16 18 17 17 13 7 8 9 9 11 11 10 10 9 8 8 8 7
6 7 17 14 16 18 16 11 12 4 17 7 6 7 6 2 1 5 6 6 5 5 12 17 16 14 10 9 8 10 11 8 7 9 10 7 8 7 9 10 14 12 11 11 10 10 9 7 4
10 10 16 16 23 21 23 11 18 17 9 27 19 7 3 7 6 8 7 4 6 8 6 6 10 16 13 9 8 6 6 6 6 9 10 6 6 7 6 4 6 5 10 4 6 6 4 6 5
8 16 18 21 20 21 11 2 5 5 17 11 8 6 4 6 5 9 6 10 6 9 22 7 8 5 12 6 7 8 7 7 7 9 11 8 5 7 5 6 6 5 5 7 6 4 5 6 7
10 16 19 22 19 11 6 4 4 6 6 3 6 6 6 3 5 7 9 8 9 10 13 18 3 1 7 4 9 8 8 9 10 11 13 10 7 6 7 8 8 8 6 7 7 6 6 7 7
12 17 17 13 15 8 3 6 3 6 6 6 6 8 5 6 8 7 9 8 9 3 15 23 22 16 11 11 8 10 10 10 10 11 13 15 11 9 10 8 9 9 9 8 7 8 7 7 6
10 11 12 12 8 6 3 8 9 9 8 10 9 9 8 9 8 9 10 10 9 7 14 19 18 18 17 23 25 11 8 10 11 9 13 18 17 11 12 10 9 10 10 11 7 7 6 6 6
10 4 3 7 9 11 9 9 10 12 9 12 9 6 4 5 6 4 6 5 7 4 14 11 11 15 18 18 17 12 13 10 11 12 10 14 14 18 13 11 11 11 8 8 10 8 6 6 6
6 6 7 11 15 11 10 6 12 12 1 10 8 8 6 6 6 7 8 6 6 3 6 14 16 13 14 17 13 10 10 9 10 9 8 13 13 12 9 11 12 9 11 11 10 8 5 5 5
8 6 9 15 19 19 9 9 12 7 10 13 11 10 10 9 11 9 9 8 2 5 4 3 6 13 17 11 7 4 5 6 5 9 9 10 12 9 6 7 6 5 6 9 11 14 8 5 5
15 15 10 9 14 10 9 5 7 6 3 7 8 10 10 11 13 10 8 8 4 4 4 1 2 3 4 4 8 7 6 6 6 4 7 7 9 13 10 9 7 7 10 5 7 3 7 5 5
11 4 8 10 9 2 5 5 3 5 7 6 8 9 10 13 11 9 9 7 8 5 6 5 5 4 5 4 4 4 4 5 8 6 6 12 13 17 16 16 13 12 9 9 10 11 7 8 10
7 4 7 9 9 7 5 6 5 9 7 11 9 9 8 7 5 2 8 9 8 8 7 5 3 6 4 4 3 1 2 2 3 5 10 13 14 17 18 18 15 16 14 14 14 13 16 12 7
6 11 10 12 5 3 5 5 7 8 10 12 16 11 10 10 10 7 7 8 9 8 9 9 8 5 7 5 1 4 5 7 6 9 10 10 15 17 17 17 18 17 11 14 14 13 12 11 10
8 4 5 6 7 7 9 4 8 9 11 9 10 9 9 9 10 8 9 8 7 8 7 7 8 8 7 8 5 3 4 5 7 6 9 12 12 14 17 19 20 18 14 17 15 16 14 13 11
5 4 7 5 2 4 10 5 10 6 4 7 7 8 8 8 8 7 7 7 5 6 7 7 6 4 5 5 5 4 5 7 5 8 9 10 11 11 17 18 18 14 13 11 14 12 16 13 13
10 3 2 4 1 11 12 5 9 5 3 12 8 7 7 6 6 5 5 4 6 7 5 3 5 6 5 5 5 6 6 7 7 8 8 10 11 11 13 18 13 3 13 16 14 15 15 16 14
9 1 4 3 4 6 9 7 6 9 10 9 9 8 6 6 5 5 6 6 6 5 1 1 3 5 7 7 6 7 8 5 5 7 10 9 11 14 14 14 16 17 15 28 16 14 13 17 17
5 9 8 4 5 1 4 6 12 11 7 6 6 4 3 6 6 9 3 6 7 3 2 3 5 6 7 8 7 7 7 8 8 9 11 12 12 13 17 13 19 21 26 29 25 14 16 16 15
7 5 5 4 2 3 4 1 1 7 5 6 5 4 6 7 11 7 1 0 2 3 6 8 7 8 8 7 6 6 6 8 7 6 9 15 17 16 19 19 16 22 23 21 22 18 18 17 12
5 4 1 3 4 5 2 6 4 4 1 3 5 4 7 9 10 11 10 8 7 9 10 10 9 9 8 8 8 8 7 7 7 6 7 10 15 18 20 21 18 16 20 22 18 17 17 18 20
10 1 2 5 5 4 3 8 8 8 5 8 11 13 10 8 9 9 9 10 11 10 11 12 10 10 10 10 8 8 8 7 7 6 7 11 14 20 22 20 18 13 15 8 11 17 21 9 19
Wind_Direction
302 298 302 268 13 175 245 249 261 279 277 225 345 63 99 54 71 115 97 120 125 130 142 145 140 137 135 136 137 137 134 130 127 124 121 118 117 116 112 110 113 116 120 120 120 119 116 111 107
309 319 312 263 163 240 257 247 248 255 269 111 31 355 63 48 77 110 103 118 125 126 136 148 144 140 138 139 140 143 137 133 130 130 127 126 123 120 118 118 120 122 126 127 129 128 124 122 118
279 231 40 208 206 222 251 249 251 290 109 37 330 76 53 72 59 85 122 129 124 129 131 151 149 144 141 142 142 145 140 137 137 136 133 133 132 130 132 134 134 136 138 139 136 132 130 128 126
255 320 300 242 250 229 244 261 275 299 36 66 6 77 79 35 71 130 131 126 124 132 135 148 151 149 145 145 146 147 144 141 141 141 138 139 140 141 139 136 136 141 141 141 139 136 138 142 143
305 292 232 230 246 260 258 256 266 287 133 224 79 99 79 84 82 121 134 132 135 128 138 148 153 152 150 149 150 147 147 145 144 146 144 144 146 145 143 142 143 148 146 142 142 141 147 156 156
253 157 250 234 251 246 258 260 277 266 294 37 88 87 66 91 115 145 141 143 142 136 142 152 153 153 154 152 154 150 148 149 149 151 150 151 153 153 151 150 150 152 151 150 149 152 162 170 178
208 252 240 253 266 250 254 259 280 292 352 32 120 106 183 46 48 92 141 144 138 140 140 146 152 153 158 155 156 156 152 153 152 152 150 152 155 155 154 152 152 154 155 152 155 161 170 175 204
198 232 257 238 253 263 269 321 156 280 273 3 341 124 131 128 58 125 352 139 145 147 146 150 150 150 154 160 156 159 158 157 155 155 153 154 156 155 156 154 155 156 156 156 164 178 184 190 210
251 234 244 252 243 253 270 258 264 316 299 309 296 88 162 152 107 107 17 307 154 154 153 152 150 152 153 152 161 156 161 162 158 158 155 149 152 156 160 164 160 161 163 170 179 191 195 202 223
193 237 247 258 258 267 278 262 231 155 284 289 320 337 346 73 109 185 198 156 82 156 161 156 152 153 161 169 163 170 171 158 160 156 157 158 157 169 174 178 169 171 174 178 186 197 205 213 222
245 240 253 236 256 261 271 300 216 182 200 267 283 312 0 35 26 28 344 47 151 125 46 325 165 156 167 171 159 171 176 162 163 165 160 175 173 178 176 167 174 167 181 180 192 201 207 210 215
232 246 248 255 250 256 280 335 106 124 204 236 273 300 4 19 353 306 314 317 148 149 148 161 348 282 173 133 161 168 170 175 175 174 174 175 187 185 164 166 173 176 181 186 192 201 214 226 227
211 240 244 249 255 271 260 271 213 228 231 276 303 308 270 299 273 275 272 265 286 133 140 142 195 320 16 276 165 175 183 182 182 180 177 179 185 177 168 179 176 185 183 196 195 197 208 218 230
231 231 238 242 246 248 227 242 230 211 202 261 291 275 267 248 260 263 278 278 289 124 163 170 171 156 135 307 243 187 188 190 186 193 185 180 186 185 181 186 189 194 188 196 197 197 205 215 210
287 257 243 241 262 245 256 288 250 239 203 200 233 254 251 238 254 256 243 247 244 260 146 172 169 149 137 160 249 203 185 181 189 203 196 185 180 191 184 185 194 200 189 182 193 210 199 200 217
294 320 308 270 238 248 160 257 258 244 194 196 213 244 246 274 255 263 286 285 291 136 146 154 172 177 188 194 206 187 189 186 205 183 198 202 209 186 188 195 198 182 200 202 185 200 206 191 193
288 242 257 260 245 217 164 227 246 261 284 166 205 223 227 256 274 292 281 279 317 201 156 160 184 203 208 212 201 184 180 185 190 196 192 195 197 205 186 201 213 200 192 187 192 185 191 182 199
259 236 255 253 252 213 196 213 243 205 157 177 188 200 207 220 232 232 255 267 95 82 85 70 120 192 199 207 214 199 187 180 175 196 197 181 196 194 190 209 234 229 203 216 203 182 174 171 186
246 258 267 314 344 151 189 191 227 268 204 193 209 213 211 213 227 221 227 252 237 142 123 86 4 80 140 202 196 219 215 209 206 193 191 175 200 204 190 200 197 195 211 204 217 185 165 182 185
251 323 319 316 315 328 255 242 280 302 283 238 223 217 205 215 233 225 230 244 247 209 189 179 239 254 151 172 196 203 204 219 221 210 206 204 199 203 208 208 209 205 201 188 199 203 178 195 187
323 299 295 282 303 323 355 332 308 270 252 254 240 220 208 199 157 3 37 47 48 46 356 314 257 238 242 180 172 216 261 295 244 240 228 224 211 207 211 210 210 212 205 204 199 203 199 202 200
263 271 251 265 354 287 35 287 291 282 274 246 233 59 79 71 68 76 73 47 39 27 29 34 26 352 326 341 343 232 212 237 236 238 239 234 221 208 208 208 211 215 211 215 214 207 204 203 207
242 266 18 357 351 16 308 350 283 277 287 77 80 75 65 70 73 53 58 77 53 42 47 33 33 38 22 15 360 299 270 245 246 250 254 249 243 224 217 211 211 211 214 217 213 207 202 200 196
348 24 351 349 22 308 262 213 287 253 215 115 107 102 91 82 67 58 36 41 41 45 30 21 46 0 350 345 324 351 311 287 280 269 256 258 255 248 226 214 222 209 227 222 215 201 204 197 207
337 28 318 334 248 240 93 6 236 268 157 121 109 102 100 107 95 77 58 14 345 346 356 18 9 329 328 339 322 302 278 270 273 282 275 265 256 256 243 217 209 151 295 252 223 217 217 207 202
295 41 139 179 264 302 317 210 243 110 81 86 86 81 74 116 152 170 215 224 211 221 197 354 334 317 317 309 298 294 283 252 249 270 284 265 253 254 248 224 215 196 180 266 249 234 227 219 214
357 242 179 196 248 283 249 276 46 74 80 81 96 123 235 278 250 221 67 8 287 266 277 264 282 294 307 300 294 287 276 264 269 281 282 280 267 253 251 224 208 205 206 219 224 218 220 223 214
248 280 9 340 331 249 259 360 91 38 19 79 25 334 276 340 350 40 59 177 122 223 261 264 255 228 236 257 263 271 282 279 278 295 282 285 279 259 254 245 228 220 216 219 219 215 213 218 213
298 345 303 90 148 182 300 267 166 36 48 35 275 327 53 38 28 20 7 357 360 9 6 349 323 286 279 277 267 262 273 266 280 279 295 298 297 275 257 252 244 225 220 224 226 222 217 215 214
258 266 209 121 281 295 166 278 299 300 294 317 38 39 51 55 39 19 3 355 356 354 347 337 324 324 317 307 283 270 266 250 258 267 280 289 293 288 262 254 251 238 229 247 271 267 248 329 249